GW0692 Weather Reports


Display with metric or nautical units.
time (UTC)temp
F
wind
direction
speed
MPH
gust
MPH
rain 1hr
in
rain 24hr
in
rain mn
in
humidity
%
barometer
mb
20260509130723 58 259 5.0 5.0 0.00 0.00 0.00 26 1019.5
20260509130219 58 227 5.0 5.0 0.00 0.00 0.00 26 1019.7
20260509125716 58 289 6.0 7.0 0.00 0.00 0.00 26 1019.8
20260509125213 57 241 3.0 3.0 0.00 0.00 0.00 26 1019.3
20260509124709 57 243 3.0 5.0 0.00 0.00 0.00 26 1019.5
20260509124206 57 235 4.0 5.0 0.00 0.00 0.00 26 1019.4
20260509123704 57 251 4.0 5.0 0.00 0.00 0.00 26 1019.3
20260509123201 57 247 3.0 3.0 0.00 0.00 0.00 27 1019.2
20260509122656 57 222 5.0 5.0 0.00 0.00 0.00 26 1019.0
20260509122154 57 280 4.0 5.0 0.00 0.00 0.00 26 1018.8
20260509121650 57 252 3.0 5.0 0.00 0.00 0.00 27 1018.9
20260509121148 57 254 3.0 3.0 0.00 0.00 0.00 27 1019.0
20260509120646 57 269 2.0 2.0 0.00 0.00 0.00 27 1018.9
20260509120144 58 253 2.0 3.0 0.00 0.00 0.00 26 1018.9
20260509115641 58 256 3.0 3.0 0.00 0.00 0.00 27 1018.9
20260509115138 57 255 3.0 3.0 0.00 0.00 0.00 27 1018.8
20260509114636 58 265 2.0 3.0 0.00 0.00 0.00 27 1018.9
20260509114135 58 259 2.0 2.0 0.00 0.00 0.00 27 1018.7
20260509113633 58 250 3.0 5.0 0.00 0.00 0.00 27 1018.5
20260509113130 58 255 3.0 3.0 0.00 0.00 0.00 27 1018.7
20260509112627 58 241 3.0 3.0 0.00 0.00 0.00 26 1018.5
20260509112124 58 250 3.0 3.0 0.00 0.00 0.00 26 1018.5
20260509111621 58 249 4.0 5.0 0.00 0.00 0.00 26 1018.4
20260509111117 58 262 2.0 3.0 0.00 0.00 0.00 26 1018.4
20260509110615 58 274 4.0 5.0 0.00 0.00 0.00 27 1018.4
20260509110112 58 253 4.0 5.0 0.00 0.00 0.00 27 1018.5
20260509105610 57 244 2.0 3.0 0.00 0.00 0.00 27 1018.4
20260509105107 57 267 5.0 5.0 0.00 0.00 0.00 27 1018.4
20260509104604 57 252 4.0 5.0 0.00 0.00 0.00 27 1018.5
20260509104101 58 264 5.0 5.0 0.00 0.00 0.00 26 1018.3
20260509103559 57 244 3.0 3.0 0.00 0.00 0.00 27 1018.4
20260509103057 57 255 4.0 5.0 0.00 0.00 0.00 27 1018.7
20260509102554 57 232 5.0 7.0 0.00 0.00 0.00 26 1018.4
20260509102050 57 277 3.0 3.0 0.00 0.00 0.00 26 1018.4
20260509101547 57 303 4.0 5.0 0.00 0.00 0.00 26 1018.5
20260509101044 57 267 4.0 5.0 0.00 0.00 0.00 26 1018.5
20260509100541 58 248 3.0 5.0 0.00 0.00 0.00 26 1018.3
20260509100038 57 244 4.0 5.0 0.00 0.00 0.00 26 1018.4
20260509095534 58 261 4.0 5.0 0.00 0.00 0.00 26 1018.7
20260509095032 58 264 3.0 5.0 0.00 0.00 0.00 26 1018.7
20260509094528 58 270 5.0 7.0 0.00 0.00 0.00 26 1018.4
20260509094026 58 265 3.0 5.0 0.00 0.00 0.00 26 1018.7
20260509093524 58 234 4.0 7.0 0.00 0.00 0.00 26 1018.7
20260509093021 58 245 5.0 7.0 0.00 0.00 0.00 26 1018.5
20260509092519 57 223 5.0 7.0 0.00 0.00 0.00 26 1018.4
20260509092017 57 236 6.0 9.0 0.00 0.00 0.00 26 1018.3
20260509091514 57 263 5.0 5.0 0.00 0.00 0.00 26 1018.5
20260509091011 57 251 6.0 9.0 0.00 0.00 0.00 26 1018.5
20260509090508 57 255 6.0 9.0 0.00 0.00 0.00 26 1018.4
20260509090006 57 253 5.0 7.0 0.00 0.00 0.00 26 1018.4
20260509085502 57 246 4.0 7.0 0.00 0.00 0.00 26 1018.5
20260509084959 57 259 6.0 9.0 0.00 0.00 0.00 26 1018.2
20260509084455 58 253 7.0 9.0 0.00 0.00 0.00 26 1018.2
20260509083953 58 236 5.0 9.0 0.00 0.00 0.00 26 1018.5
20260509083450 58 270 5.0 7.0 0.00 0.00 0.00 26 1018.4
20260509082946 58 242 5.0 7.0 0.00 0.00 0.00 26 1018.2
20260509082444 59 253 5.0 7.0 0.00 0.00 0.00 25 1018.4
20260509081941 59 250 5.0 7.0 0.00 0.00 0.00 26 1018.4
20260509081438 59 273 5.0 7.0 0.00 0.00 0.00 25 1018.5
20260509080935 59 279 4.0 5.0 0.00 0.00 0.00 25 1018.4
20260509080433 60 261 4.0 5.0 0.00 0.00 0.00 25 1018.5
20260509075931 60 244 4.0 5.0 0.00 0.00 0.00 25 1018.3
20260509075428 60 250 3.0 3.0 0.00 0.00 0.00 24 1018.4
20260509074926 60 245 3.0 3.0 0.00 0.00 0.00 25 1018.5
20260509074423 60 255 1.0 2.0 0.00 0.00 0.00 24 1018.7
20260509073919 60 241 3.0 3.0 0.00 0.00 0.00 24 1018.4
20260509073416 60 254 3.0 3.0 0.00 0.00 0.00 24 1018.5
20260509072912 60 236 3.0 3.0 0.00 0.00 0.00 24 1018.4
20260509072409 60 253 3.0 3.0 0.00 0.00 0.00 24 1018.7
20260509071905 59 250 2.0 2.0 0.00 0.00 0.00 25 1018.4
20260509071403 59 268 2.0 3.0 0.00 0.00 0.00 24 1018.5
20260509070900 59 247 2.0 3.0 0.00 0.00 0.00 25 1018.7
20260509070356 59 248 3.0 3.0 0.00 0.00 0.00 25 1018.8
20260509065852 59 258 3.0 3.0 0.00 0.00 0.00 24 1018.9
20260509065349 60 248 3.0 3.0 0.00 0.00 0.00 24 1018.9
20260509064845 60 263 2.0 3.0 0.00 0.00 0.00 24 1018.8
20260509064343 60 234 5.0 5.0 0.00 0.00 0.00 24 1018.7
20260509063840 60 241 3.0 3.0 0.00 0.00 0.00 24 1018.8
20260509063336 60 255 3.0 3.0 0.00 0.00 0.00 24 1018.5
20260509062833 60 244 3.0 3.0 0.00 0.00 0.00 24 1018.7
20260509062330 60 249 2.0 2.0 0.00 0.00 0.00 24 1019.0
20260509061827 60 232 3.0 5.0 0.00 0.00 0.00 24 1018.5
20260509061326 60 238 2.0 3.0 0.00 0.00 0.00 24 1018.8
20260509060822 60 251 3.0 3.0 0.00 0.00 0.00 24 1018.8
20260509060319 60 249 2.0 2.0 0.00 0.00 0.00 24 1019.0
20260509055815 61 251 5.0 5.0 0.00 0.00 0.00 23 1018.9
20260509055310 60 245 2.0 3.0 0.00 0.00 0.00 24 1019.0
20260509054808 61 245 2.0 2.0 0.00 0.00 0.00 23 1018.9
20260509054304 60 270 2.0 3.0 0.00 0.00 0.00 24 1018.8
20260509053803 60 255 2.0 3.0 0.00 0.00 0.00 24 1018.9
20260509053259 60 247 3.0 5.0 0.00 0.00 0.00 24 1019.0
20260509052757 60 244 3.0 3.0 0.00 0.00 0.00 24 1018.9
20260509052255 60 264 5.0 7.0 0.00 0.00 0.00 24 1018.8
20260509051752 61 249 2.0 2.0 0.00 0.00 0.00 24 1018.9
20260509051250 60 276 2.0 3.0 0.00 0.00 0.00 24 1018.9
20260509050746 60 243 3.0 3.0 0.00 0.00 0.00 24 1018.9
20260509050243 60 254 3.0 3.0 0.00 0.00 0.00 24 1019.0
20260509045740 61 254 2.0 2.0 0.00 0.00 0.00 24 1019.0
20260509045237 61 241 3.0 3.0 0.00 0.00 0.00 23 1019.2
20260509044734 60 256 3.0 3.0 0.00 0.00 0.00 23 1019.2
20260509044232 60 253 2.0 3.0 0.00 0.00 0.00 23 1019.0
20260509043728 60 259 3.0 5.0 0.00 0.00 0.00 23 1019.0
20260509043224 61 231 2.0 3.0 0.00 0.00 0.00 23 1019.0
20260509042721 60 246 3.0 3.0 0.00 0.00 0.00 23 1019.0
20260509042217 61 252 2.0 3.0 0.00 0.00 0.00 22 1019.0
20260509041714 60 237 4.0 5.0 0.00 0.00 0.00 22 1018.9
20260509041211 60 234 1.0 2.0 0.00 0.00 0.00 22 1018.9
20260509040709 61 246 2.0 2.0 0.00 0.00 0.00 22 1019.0
20260509040206 61 250 0.0 2.0 0.00 0.00 0.00 22 1019.0
20260509035702 61 240 3.0 3.0 0.00 0.00 0.00 22 1018.9
20260509035159 61 257 3.0 3.0 0.00 0.00 0.00 22 1018.9
20260509034657 61 231 2.0 2.0 0.00 0.00 0.00 22 1018.9
20260509034154 61 243 3.0 3.0 0.00 0.00 0.00 22 1018.8
20260509033651 61 236 2.0 2.0 0.00 0.00 0.00 22 1018.7
20260509033148 60 241 1.0 2.0 0.00 0.00 0.00 22 1018.8
20260509032645 60 247 2.0 2.0 0.00 0.00 0.00 22 1018.7
20260509032142 61 252 2.0 2.0 0.00 0.00 0.00 21 1018.5
20260509031639 61 251 2.0 3.0 0.00 0.00 0.00 21 1018.5
20260509031137 62 256 2.0 3.0 0.00 0.00 0.00 20 1018.4
20260509030635 62 237 2.0 3.0 0.00 0.00 0.00 20 1018.4
20260509030132 61 254 3.0 3.0 0.00 0.00 0.00 20 1018.4
20260509025628 61 247 2.0 2.0 0.00 0.00 0.00 20 1018.3
20260509025124 61 243 2.0 2.0 0.00 0.00 0.00 20 1018.3
20260509024619 61 240 1.0 3.0 0.00 0.00 0.00 20 1018.3
20260509024115 62 251 2.0 2.0 0.00 0.00 0.00 20 1018.3
20260509023614 62 244 1.0 2.0 0.00 0.00 0.00 19 1018.3
20260509023110 62 251 1.0 2.0 0.00 0.00 0.00 19 1018.2
20260509022606 63 255 1.0 2.0 0.00 0.00 0.00 19 1018.0
20260509022105 63 241 0.0 2.0 0.00 0.00 0.00 19 1018.0
20260509021601 63 229 2.0 2.0 0.00 0.00 0.00 19 1017.9
20260509021058 63 255 2.0 2.0 0.00 0.00 0.00 19 1018.2
20260509020557 64 250 1.0 2.0 0.00 0.00 0.00 19 1017.7
20260509020053 65 258 0.0 2.0 0.00 0.00 0.00 19 1017.9
20260509015552 65 266 2.0 2.0 0.00 0.00 0.00 18 1017.8
20260509015049 66 302 4.0 5.0 0.00 0.00 0.00 18 1017.8
20260509014546 67 286 2.0 2.0 0.00 0.00 0.00 18 1017.9
20260509014042 67 252 3.0 3.0 0.00 0.00 0.00 18 1017.5
20260509013539 67 258 3.0 3.0 0.00 0.00 0.00 18 1017.7
20260509013034 67 355 5.0 7.0 0.00 0.00 0.00 18 1017.5
20260509012532 68 247 2.0 2.0 0.00 0.00 0.00 18 1017.8
20260509012028 68 282 3.0 3.0 0.00 0.00 0.00 18 1017.4
20260509011526 69 265 3.0 3.0 0.00 0.00 0.00 17 1017.5
20260509011023 69 311 8.0 14.0 0.00 0.00 0.00 18 1017.7
20260509010521 69 270 8.0 14.0 0.00 0.00 0.00 17 1017.5
20260509010017 69 249 3.0 3.0 0.00 0.00 0.00 17 1017.3
20260509005515 69 275 9.0 14.0 0.00 0.00 0.00 17 1017.5
20260509005015 69 253 5.0 7.0 0.00 0.00 0.00 18 1017.3
20260509004513 70 245 5.0 7.0 0.00 0.00 0.00 17 1017.2
20260509004009 70 248 5.0 7.0 0.00 0.00 0.00 17 1017.3
20260509003508 71 317 3.0 5.0 0.00 0.00 0.00 17 1017.0
20260509003004 72 261 6.0 9.0 0.00 0.00 0.00 17 1017.3
20260509002503 70 202 4.0 7.0 0.00 0.00 0.00 17 1017.5
20260509001959 70 292 4.0 7.0 0.00 0.00 0.00 17 1017.2
20260509001456 71 272 9.0 10.0 0.00 0.00 0.00 17 1017.2
20260509000952 72 224 5.0 7.0 0.00 0.00 0.00 17 1017.3
20260509000451 73 251 4.0 9.0 0.00 0.00 0.00 17 1017.0
20260508235946 74 343 4.0 5.0 0.00 0.00 0.00 17 1017.0
20260508235444 74 283 7.0 14.0 0.00 0.00 0.00 16 1017.5
20260508234941 75 266 2.0 3.0 0.00 0.00 0.00 16 1017.3
20260508234437 75 217 6.0 9.0 0.00 0.00 0.00 16 1017.4
20260508233935 74 294 4.0 7.0 0.00 0.00 0.00 17 1017.3
20260508233435 74 243 9.0 14.0 0.00 0.00 0.00 16 1017.4
20260508232931 73 276 7.0 9.0 0.00 0.00 0.00 17 1017.0
20260508232428 74 239 3.0 3.0 0.00 0.00 0.00 16 1017.4
20260508231925 74 239 6.0 7.0 0.00 0.00 0.00 16 1017.0
20260508231422 74 203 4.0 5.0 0.00 0.00 0.00 16 1016.9
20260508230919 74 284 7.0 14.0 0.00 0.00 0.00 16 1017.3
20260508230415 75 262 3.0 3.0 0.00 0.00 0.00 16 1017.0
20260508225913 74 256 3.0 3.0 0.00 0.00 0.00 17 1017.0
20260508225409 75 320 10.0 12.0 0.00 0.00 0.00 16 1017.0
20260508224907 75 232 5.0 5.0 0.00 0.00 0.00 16 1017.0
20260508224404 75 279 7.0 9.0 0.00 0.00 0.00 16 1017.3
20260508223902 76 270 7.0 9.0 0.00 0.00 0.00 16 1017.3
20260508223400 76 232 5.0 7.0 0.00 0.00 0.00 16 1017.2
20260508222857 75 241 7.0 9.0 0.00 0.00 0.00 16 1016.9
20260508222353 76 268 7.0 10.0 0.00 0.00 0.00 16 1017.0
20260508221850 75 275 6.0 9.0 0.00 0.00 0.00 17 1017.4
20260508221345 75 232 4.0 5.0 0.00 0.00 0.00 17 1017.2
20260508220842 74 272 7.0 9.0 0.00 0.00 0.00 17 1017.0
20260508220339 75 270 5.0 7.0 0.00 0.00 0.00 17 1017.2
20260508215835 75 211 5.0 7.0 0.00 0.00 0.00 17 1017.2
20260508215332 75 237 7.0 10.0 0.00 0.00 0.00 17 1017.2
20260508214829 75 253 7.0 10.0 0.00 0.00 0.00 17 1017.2
20260508214326 76 260 7.0 10.0 0.00 0.00 0.00 17 1017.0
20260508213823 75 228 9.0 12.0 0.00 0.00 0.00 17 1017.2
20260508213320 75 240 10.0 12.0 0.00 0.00 0.00 17 1017.5
20260508212816 74 211 9.0 12.0 0.00 0.00 0.00 18 1017.5
20260508212312 75 247 7.0 15.0 0.00 0.00 0.00 17 1017.4
20260508211808 75 292 3.0 5.0 0.00 0.00 0.00 18 1017.5
20260508211304 74 244 11.0 14.0 0.00 0.00 0.00 17 1017.9
20260508210802 74 301 7.0 10.0 0.00 0.00 0.00 18 1017.9
20260508210258 75 275 9.0 12.0 0.00 0.00 0.00 18 1018.0
20260508205755 74 256 6.0 9.0 0.00 0.00 0.00 18 1017.8
20260508205251 72 247 5.0 7.0 0.00 0.00 0.00 19 1017.8
20260508204748 74 240 9.0 10.0 0.00 0.00 0.00 18 1018.2
20260508204244 74 269 4.0 5.0 0.00 0.00 0.00 19 1017.9
20260508203741 74 291 6.0 7.0 0.00 0.00 0.00 18 1018.3
20260508203237 74 247 6.0 7.0 0.00 0.00 0.00 18 1018.4
20260508202732 74 293 7.0 9.0 0.00 0.00 0.00 18 1018.4
20260508202230 73 159 6.0 7.0 0.00 0.00 0.00 19 1018.4
20260508201727 73 259 9.0 14.0 0.00 0.00 0.00 19 1018.2
20260508201224 72 280 9.0 14.0 0.00 0.00 0.00 20 1018.3
20260508200721 73 260 7.0 10.0 0.00 0.00 0.00 19 1018.4
20260508200217 73 258 6.0 7.0 0.00 0.00 0.00 19 1018.3
20260508195713 71 281 3.0 3.0 0.00 0.00 0.00 20 1018.5
20260508195209 72 6 3.0 3.0 0.00 0.00 0.00 20 1018.9
20260508194706 73 283 5.0 9.0 0.00 0.00 0.00 19 1018.5
20260508194203 73 234 4.0 7.0 0.00 0.00 0.00 20 1018.5
20260508193700 71 223 3.0 5.0 0.00 0.00 0.00 20 1018.4
20260508193157 70 269 10.0 14.0 0.00 0.00 0.00 20 1018.4
20260508192653 75 194 4.0 5.0 0.00 0.00 0.00 19 1018.9
20260508192151 73 296 5.0 9.0 0.00 0.00 0.00 20 1018.7
20260508191648 73 293 4.0 5.0 0.00 0.00 0.00 19 1019.2
20260508191144 73 82 6.0 9.0 0.00 0.00 0.00 20 1018.8
20260508190642 72 102 7.0 12.0 0.00 0.00 0.00 20 1018.9
20260508190138 72 245 3.0 5.0 0.00 0.00 0.00 20 1018.8
20260508185635 73 253 3.0 3.0 0.00 0.00 0.00 20 1019.0
20260508185132 72 333 5.0 9.0 0.00 0.00 0.00 20 1019.0
20260508184629 73 327 5.0 7.0 0.00 0.00 0.00 19 1019.2
20260508184126 72 41 6.0 10.0 0.00 0.00 0.00 21 1019.3
20260508183623 72 53 7.0 10.0 0.00 0.00 0.00 21 1019.3
20260508183119 70 274 4.0 5.0 0.00 0.00 0.00 22 1019.5
20260508182615 72 91 4.0 5.0 0.00 0.00 0.00 21 1019.7
20260508182112 71 267 5.0 7.0 0.00 0.00 0.00 21 1019.0
20260508181607 70 109 5.0 7.0 0.00 0.00 0.00 22 1019.4
20260508181105 69 39 7.0 17.0 0.00 0.00 0.00 22 1019.4
20260508180601 69 54 12.0 17.0 0.00 0.00 0.00 23 1019.5
20260508180058 71 295 3.0 3.0 0.00 0.00 0.00 22 1019.5
20260508175554 71 36 7.0 10.0 0.00 0.00 0.00 22 1019.4
20260508175052 71 107 4.0 5.0 0.00 0.00 0.00 21 1019.9
20260508174549 69 270 5.0 9.0 0.00 0.00 0.00 23 1020.0
20260508174046 71 67 8.0 12.0 0.00 0.00 0.00 21 1019.8
20260508173543 71 15 6.0 9.0 0.00 0.00 0.00 21 1020.0
20260508173039 69 23 3.0 3.0 0.00 0.00 0.00 22 1019.7
20260508172536 70 297 7.0 10.0 0.00 0.00 0.00 22 1020.0
20260508172033 70 130 3.0 5.0 0.00 0.00 0.00 22 1019.9
20260508171529 69 25 9.0 12.0 0.00 0.00 0.00 21 1019.9
20260508171026 68 300 4.0 7.0 0.00 0.00 0.00 23 1020.2
20260508170523 69 64 7.0 10.0 0.00 0.00 0.00 22 1020.3
20260508170020 70 60 4.0 7.0 0.00 0.00 0.00 22 1020.2
20260508165518 70 39 6.0 10.0 0.00 0.00 0.00 22 1019.9
20260508165014 70 273 7.0 12.0 0.00 0.00 0.00 21 1020.0
20260508164511 69 246 0.0 2.0 0.00 0.00 0.00 22 1020.0
20260508164008 69 98 2.0 3.0 0.00 0.00 0.00 22 1020.0
20260508163505 69 166 2.0 3.0 0.00 0.00 0.00 22 1020.3
20260508163001 68 86 7.0 12.0 0.00 0.00 0.00 22 1020.0
20260508162458 69 317 5.0 7.0 0.00 0.00 0.00 22 1020.3
20260508161955 68 248 3.0 5.0 0.00 0.00 0.00 23 1020.3
20260508161452 68 219 4.0 7.0 0.00 0.00 0.00 23 1020.3
20260508160949 68 189 3.0 3.0 0.00 0.00 0.00 24 1020.2
20260508160448 68 283 7.0 10.0 0.00 0.00 0.00 23 1020.4
20260508155944 67 88 7.0 10.0 0.00 0.00 0.00 23 1020.3
20260508155442 67 294 2.0 3.0 0.00 0.00 0.00 23 1020.3
20260508154938 67 273 3.0 3.0 0.00 0.00 0.00 23 1020.5
20260508154436 67 68 2.0 3.0 0.00 0.00 0.00 24 1020.4
20260508153932 67 224 3.0 5.0 0.00 0.00 0.00 24 1020.3
20260508153429 67 31 2.0 3.0 0.00 0.00 0.00 23 1020.4
20260508152925 66 132 2.0 2.0 0.00 0.00 0.00 24 1020.2
20260508152422 66 297 2.0 3.0 0.00 0.00 0.00 24 1020.0
20260508151919 67 212 4.0 7.0 0.00 0.00 0.00 23 1020.2
20260508151416 67 316 7.0 10.0 0.00 0.00 0.00 23 1020.0
20260508150912 66 268 4.0 5.0 0.00 0.00 0.00 23 1020.2
20260508150409 66 212 2.0 3.0 0.00 0.00 0.00 23 1020.3
20260508145905 64 216 1.0 2.0 0.00 0.00 0.00 24 1020.4
20260508145401 65 233 2.0 3.0 0.00 0.00 0.00 25 1020.3
20260508144858 64 269 1.0 2.0 0.00 0.00 0.00 25 1020.2
20260508144356 63 328 2.0 3.0 0.00 0.00 0.00 25 1020.0
20260508143853 62 273 2.0 2.0 0.00 0.00 0.00 26 1020.2
20260508143350 62 358 4.0 9.0 0.00 0.00 0.00 25 1020.2
20260508142847 61 239 0.0 2.0 0.00 0.00 0.00 27 1020.4
20260508142344 61 335 3.0 3.0 0.00 0.00 0.00 26 1020.2
20260508141840 60 101 2.0 3.0 0.00 0.00 0.00 27 1020.3
20260508141337 60 193 1.0 2.0 0.00 0.00 0.00 28 1020.3
20260508140835 60 254 4.0 7.0 0.00 0.00 0.00 27 1020.3
20260508140331 59 256 3.0 3.0 0.00 0.00 0.00 28 1020.3
20260508135827 59 246 4.0 5.0 0.00 0.00 0.00 28 1020.2
20260508135324 59 274 1.0 2.0 0.00 0.00 0.00 29 1020.0
20260508134820 58 256 1.0 3.0 0.00 0.00 0.00 30 1020.0
20260508134317 58 232 0.0 2.0 0.00 0.00 0.00 30 1020.0
20260508133813 57 295 1.0 2.0 0.00 0.00 0.00 29 1019.9
20260508133311 57 246 0.0 2.0 0.00 0.00 0.00 30 1019.9
20260508132808 56 241 0.0 0.0 0.00 0.00 0.00 30 1019.8
20260508132307 56 316 3.0 5.0 0.00 0.00 0.00 29 1019.8
20260508131802 55 247 2.0 2.0 0.00 0.00 0.00 30 1019.9
20260508131258 55 256 2.0 2.0 0.00 0.00 0.00 30 1019.7